Weather History for KHFJ - October, 2013

Change the Weather History Date:

Monday, October 21, 2013

  Actual Average (KJLN) Record (KJLN)
Temperature  
Mean Temperature 45 °F 58 °F  
Max Temperature 53 °F 70 °F 89 °F (1978)
Min Temperature 37 °F 47 °F 27 °F (1987)
Degree Days  
Heating Degree Days 20 8  
Month to date heating degree days 119  
Since 1 July heating degree days 161  
Cooling Degree Days 0 1  
Month to date cooling degree days 39  
Year to date cooling degree days 1681  
Moisture  
Dew Point 39 °F    
Average Humidity 76    
Maximum Humidity 100    
Minimum Humidity 51    
Precipitation  
Precipitation 0.00 in 0.14 in 1.48 in (1972)
Month to date precipitation 2.75  
Year to date precipitation 38.67  
Sea Level Pressure  
Sea Level Pressure 30.05 in    
Wind  
Wind Speed 5 mph (NNW)    
Max Wind Speed 15 mph    
Max Gust Speed 21 mph    
Visibility 10 miles    
Events Rain    
T = Trace of Precipitation, MM = Missing Value Source: NWS Daily Summary

Daily Weather History Graph

Daily Weather History Graph

Search for Another Location

Airport or City:

Trip Planner

Search our weather history database for the weather conditions in past years. The results will help you decide how hot, cold, wet, or windy it might be!

Date:

Astronomy

Oct. 21, 2013 Rise Set
Actual Time 7:29 AM CDT 6:31 PM CDT
Civil Twilight 7:03 AM CDT 6:57 PM CDT
Nautical Twilight 6:32 AM CDT 7:27 PM CDT
Astronomical Twilight 6:02 AM CDT 7:57 PM CDT
Moon 8:28 PM CDT (10/21) 10:01 AM CDT (10/21)
Length of Visible Light 11h 54m
Length of Day
11h 01m
Waning Gibbous, 92% of the Moon is Illuminated
Oct 21
Waning Gibbous
Oct 26
Last Quarter
Nov 3
New
Nov 9
First Quarter
Nov 17
Full

Hourly Weather History & Observations

Time (CDT) Temp. Windchill Dew Point Humidity Pressure Visibility Wind Dir Wind Speed Gust Speed Precip Events Conditions
12:15 AM 46.4 °F 44.3 °F 42.8 °F 87% 29.96 in 10.0 mi SSE 4.6 mph - N/A   Clear
12:35 AM 46.4 °F 45.2 °F 42.8 °F 87% 29.96 in 10.0 mi SE 3.5 mph - N/A   Clear
12:55 AM 46.4 °F 44.3 °F 42.8 °F 87% 29.96 in 10.0 mi SSE 4.6 mph - N/A   Clear
1:15 AM 46.4 °F 43.5 °F 42.8 °F 87% 29.96 in 10.0 mi South 5.8 mph - N/A   Clear
1:35 AM 46.4 °F 43.5 °F 42.8 °F 87% 29.96 in 10.0 mi South 5.8 mph - N/A   Clear
1:55 AM 46.4 °F 43.5 °F 42.8 °F 87% 29.96 in 10.0 mi South 5.8 mph - N/A   Clear
2:15 AM 46.4 °F 43.5 °F 42.8 °F 87% 29.96 in 10.0 mi South 5.8 mph - N/A   Clear
2:35 AM 46.4 °F 43.5 °F 42.8 °F 87% 29.96 in 10.0 mi South 5.8 mph - N/A   Clear
2:55 AM 46.4 °F 43.5 °F 42.8 °F 87% 29.96 in 10.0 mi South 5.8 mph - N/A   Clear
3:15 AM 46.4 °F 43.5 °F 42.8 °F 87% 29.96 in 10.0 mi South 5.8 mph - N/A   Clear
3:35 AM 48.2 °F - 42.8 °F 82% 29.97 in 10.0 mi SSW 5.8 mph - N/A   Mostly Cloudy
3:55 AM 48.2 °F - 42.8 °F 82% 29.96 in 10.0 mi South 4.6 mph - N/A   Mostly Cloudy
4:15 AM 50.0 °F - 42.8 °F 76% 29.97 in 10.0 mi South 5.8 mph - N/A   Overcast
4:35 AM 50.0 °F - 44.6 °F 82% 29.97 in 10.0 mi SSW 5.8 mph - N/A   Overcast
4:55 AM 50.0 °F - 44.6 °F 82% 29.98 in 10.0 mi SW 4.6 mph - N/A   Overcast
5:15 AM 50.0 °F - 44.6 °F 82% 29.97 in 10.0 mi WSW 3.5 mph - N/A   Overcast
5:35 AM 48.2 °F - 44.6 °F 87% 29.99 in 10.0 mi NW 6.9 mph - N/A   Overcast
5:55 AM 46.4 °F 43.5 °F 42.8 °F 87% 30.00 in 10.0 mi NW 5.8 mph - N/A   Mostly Cloudy
6:15 AM 46.4 °F 45.2 °F 42.8 °F 87% 30.01 in 10.0 mi NNW 3.5 mph - N/A   Mostly Cloudy
6:35 AM 46.4 °F - 42.8 °F 87% 30.01 in 10.0 mi Calm Calm - N/A   Mostly Cloudy
6:55 AM 46.4 °F - 42.8 °F 87% 30.02 in 10.0 mi Calm Calm - N/A   Mostly Cloudy
7:15 AM 46.4 °F - 44.6 °F 93% 30.03 in 10.0 mi Calm Calm - N/A   Overcast
7:35 AM 46.4 °F 45.2 °F 44.6 °F 93% 30.03 in 10.0 mi North 3.5 mph - N/A   Overcast
7:55 AM 46.4 °F 45.2 °F 42.8 °F 87% 30.03 in 10.0 mi North 3.5 mph - N/A   Mostly Cloudy
8:15 AM 46.4 °F 43.5 °F 42.8 °F 87% 30.04 in 10.0 mi North 5.8 mph - N/A   Mostly Cloudy
8:35 AM 48.2 °F - 42.8 °F 82% 30.04 in 10.0 mi North 12.7 mph - N/A   Overcast
8:55 AM 50.0 °F - 42.8 °F 76% 30.05 in 10.0 mi North 12.7 mph - N/A   Overcast
9:15 AM 46.4 °F 40.4 °F 41.0 °F 81% 30.06 in 10.0 mi North 13.8 mph - N/A   Overcast
9:35 AM 50.0 °F - 41.0 °F 71% 30.06 in 10.0 mi North 15.0 mph 20.7 mph N/A   Scattered Clouds
9:55 AM 48.2 °F - 37.4 °F 66% 30.08 in 10.0 mi North 13.8 mph 19.6 mph N/A   Scattered Clouds
10:15 AM 50.0 °F - 37.4 °F 62% 30.09 in 10.0 mi North 15.0 mph - N/A   Mostly Cloudy
10:35 AM 50.0 °F - 37.4 °F 62% 30.08 in 10.0 mi North 10.4 mph 17.3 mph N/A   Overcast
10:55 AM 50.0 °F - 37.4 °F 62% 30.09 in 10.0 mi North 9.2 mph - N/A   Overcast
11:15 AM 50.0 °F - 37.4 °F 62% 30.09 in 10.0 mi North 11.5 mph - N/A   Overcast
11:35 AM 50.0 °F - 35.6 °F 58% 30.11 in 10.0 mi North 5.8 mph - N/A Rain Light Rain
11:55 AM 50.0 °F - 35.6 °F 58% 30.10 in 10.0 mi North 8.1 mph - N/A   Overcast
12:15 PM 50.0 °F - 35.6 °F 58% 30.10 in 10.0 mi NW 8.1 mph - N/A   Overcast
12:35 PM 50.0 °F - 33.8 °F 54% 30.12 in 10.0 mi NW 5.8 mph - N/A   Overcast
12:55 PM 48.2 °F - 35.6 °F 62% 30.11 in 10.0 mi NNW 4.6 mph - N/A   Overcast
1:15 PM 48.2 °F - 35.6 °F 62% 30.10 in 10.0 mi NNW 4.6 mph - N/A   Overcast
1:35 PM 48.2 °F - 35.6 °F 62% 30.09 in 10.0 mi North 4.6 mph - N/A   Light Drizzle
1:55 PM 48.2 °F - 37.4 °F 66% 30.08 in 10.0 mi North 4.6 mph - N/A   Overcast
2:15 PM 50.0 °F - 37.4 °F 62% 30.08 in 10.0 mi North 4.6 mph - N/A   Overcast
2:35 PM 50.0 °F - 37.4 °F 62% 30.06 in 10.0 mi NNW 4.6 mph - N/A   Overcast
2:55 PM 50.0 °F - 37.4 °F 62% 30.06 in 10.0 mi North 5.8 mph - N/A   Overcast
3:15 PM 51.8 °F - 37.4 °F 58% 30.06 in 10.0 mi NNE 3.5 mph - N/A   Overcast
3:35 PM 51.8 °F - 35.6 °F 54% 30.06 in 10.0 mi North 3.5 mph - N/A   Scattered Clouds
3:55 PM 51.8 °F - 35.6 °F 54% 30.05 in 10.0 mi North 3.5 mph - N/A   Mostly Cloudy
4:15 PM 53.6 °F - 35.6 °F 51% 30.05 in 10.0 mi Calm Calm - N/A   Overcast
4:35 PM 53.6 °F - 37.4 °F 54% 30.05 in 4.0 mi Calm Calm - N/A   Haze
4:55 PM 53.6 °F - 37.4 °F 54% 30.05 in 0.8 mi NW 4.6 mph - N/A   Haze
5:15 PM 53.6 °F - 37.4 °F 54% 30.05 in 10.0 mi NNW 8.1 mph - N/A   Scattered Clouds
5:35 PM 51.8 °F - 37.4 °F 58% 30.06 in 10.0 mi North 5.8 mph - N/A   Clear
5:55 PM 50.0 °F - 37.4 °F 62% 30.06 in 10.0 mi North 4.6 mph - N/A   Clear
6:15 PM 48.2 °F - 37.4 °F 66% 30.06 in 10.0 mi Calm Calm - N/A   Clear
6:35 PM 48.2 °F - 37.4 °F 66% 30.06 in 10.0 mi Calm Calm - N/A   Clear
6:55 PM 48.2 °F - 37.4 °F 66% 30.07 in 10.0 mi Calm Calm - N/A   Clear
7:15 PM 44.6 °F - 37.4 °F 76% 30.07 in 10.0 mi Calm Calm - N/A   Clear
7:35 PM 44.6 °F - 37.4 °F 76% 30.08 in 10.0 mi Calm Calm - N/A   Clear
7:55 PM 44.6 °F - 37.4 °F 76% 30.08 in 10.0 mi Calm Calm - N/A   Clear
8:15 PM 42.8 °F - 37.4 °F 81% 30.08 in 10.0 mi Calm Calm - N/A   Clear
8:35 PM 42.8 °F - 37.4 °F 81% 30.08 in 10.0 mi Calm Calm - N/A   Clear
8:55 PM 42.8 °F - 37.4 °F 81% 30.09 in 10.0 mi Calm Calm - N/A   Clear
9:15 PM 42.8 °F - 37.4 °F 81% 30.09 in 10.0 mi Calm Calm - N/A   Clear
9:35 PM 41.0 °F - 37.4 °F 87% 30.10 in 10.0 mi Calm Calm - N/A   Clear
9:55 PM 41.0 °F - 37.4 °F 87% 30.10 in 10.0 mi Calm Calm - N/A   Clear
10:15 PM 37.4 °F - 37.4 °F 100% 30.10 in 10.0 mi Calm Calm - N/A   Clear
10:35 PM 37.4 °F - 37.4 °F 100% 30.10 in 10.0 mi Calm Calm - N/A   Clear
10:55 PM 37.4 °F 33.8 °F 35.6 °F 93% 30.10 in 10.0 mi SSE 4.6 mph - N/A   Clear
11:15 PM 37.4 °F 34.9 °F 35.6 °F 93% 30.10 in 10.0 mi SSE 3.5 mph - N/A   Clear
11:35 PM 37.4 °F 34.9 °F 35.6 °F 93% 30.09 in 10.0 mi South 3.5 mph - N/A   Clear
11:55 PM 37.4 °F 34.9 °F 35.6 °F 93% 30.09 in 10.0 mi South 3.5 mph - N/A   Clear